Home > Weather > Scottsdale > Past weeks

Flag for U.S.A. Weather for the Past 2 Weeks in Scottsdale, Arizona, U.S.A.

Now
75 °F

Sunny.


Feels Like: 75 °F
Forecast: 55 / 80 °F
Wind: No wind

Location: Scottsdale Airport

Current Time: Feb 9, 2016 at 11:33:59 AM

Latest Report: Feb 9, 2016 at 10:53 AM


Visibility: 10 mi

Pressure: 30.18 "Hg

Humidity: 10%

Dew point: 14 °F

Location of ScottsdaleLocation

Historic Weather in Scottsdale — Graph

°F

Scottsdale Temperature Yesterday

Maximum temperature yesterday: 81 °F (at 3:53 PM)
Minimum temperature yesterday: 51 °F (at 7:53 AM)
Average temperature yesterday: 69 °F

High & Low Weather Summary for the Past Weeks

 TemperatureHumidityPressure
High81 °F (Feb 8, 3:53 PM)90% (Jan 31, 10:56 PM)30.37 "Hg (Jan 31, 10:56 PM)
Low32 °F (Feb 3, 6:53 AM)9% (Jan 26, 1:53 PM)29.53 "Hg (Jan 31, 9:53 PM)
Average55 °F31%30.11 "Hg
* Reported Jan 25 9:53 AM — Feb 9 9:53 AM, Scottsdale, Weather by CustomWeather, © 2016

Note: Actual official high and low records may vary slightly from our data, if they occured in-between our weather recording intervals... More about our weather records

Advertising

Scottsdale Weather History for the Previous 24 Hours

 ConditionsComfort  
Time TempWeatherWind HumidityBarometerVisibility
9:53 AM
Tue, Feb 9
69 °FSunny.5 mph17%30.19 "Hg10 mi
8:53 AM65 °FSunny.3 mph20%30.19 "Hg10 mi
7:53 AM66 °FSunny.9 mph14%30.18 "Hg10 mi
6:53 AM63 °FClear.14 mph19%30.16 "Hg10 mi
5:53 AM62 °FClear.10 mph21%30.16 "Hg10 mi
4:53 AM62 °FClear.10 mph20%30.14 "Hg10 mi
3:53 AM63 °FClear.No wind20%30.13 "Hg10 mi
2:53 AM69 °FClear.9 mph15%30.13 "Hg10 mi
1:53 AM65 °FClear.3 mph19%30.14 "Hg10 mi
12:53 AM67 °FClear.3 mph16%30.14 "Hg10 mi
11:53 PM
Mon, Feb 8
71 °FClear.6 mph13%30.13 "Hg10 mi
10:53 PM66 °FClear.5 mph17%30.13 "Hg10 mi
9:53 PM71 °FClear.7 mph13%30.12 "Hg10 mi
8:53 PM72 °FClear.7 mph14%30.11 "Hg10 mi
7:53 PM69 °FClear.5 mph21%30.11 "Hg10 mi
6:53 PM74 °FClear.3 mph17%30.10 "Hg10 mi
5:53 PM79 °FSunny.No wind12%30.09 "Hg10 mi
4:53 PM81 °FSunny.3 mph10%30.07 "Hg10 mi
3:53 PM81 °FSunny.No wind10%30.06 "Hg10 mi
2:53 PM80 °FSunny.5 mph10%30.07 "Hg10 mi
1:53 PM79 °FSunny.5 mph10%30.09 "Hg10 mi
12:53 PM77 °FSunny.8 mph12%30.13 "Hg10 mi
11:53 AM76 °FSunny.3 mph10%30.17 "Hg10 mi
Weather by CustomWeather, © 2016

See weather overviewHow to use our weather pages